Torna al catalogo

CZ-6A DEB

AttivoPO
NORAD 61076·DEBRIS·🇨🇳 China

Lanciato Aug 6, 2024 da Taiyuan Satellite Launch Center

Loading…

Prossimi Passaggi (prossime 24 ore)

TLE

AggiornatoSource: Space-Track

Epoca: Sep 14, 2026, 06:54 UTC

1 61076U 24140MS  26257.28795887  .00000373  00000-0  16778-3 0  9992
2 61076  89.0107 266.0330 0045738 245.7547 113.8860 14.19861910106798

Traccia CZ-6A DEB in tempo reale con AllMySat

Download on the App Store